TIANLIAN 1-04 (41869 NORAD) Tracking and Keplerian Element Data

This shows tracking and keplerian element data for the satellite.

Feedback or suggestion? Click here.




ElementValue
Catalog41869
NameTIANLIAN 1-04
Epoch Orbit779
Epoch Day345.52463803
Epoch Year2018
RAAN285.5564
Inclination1.4963
Eccentricity0.0009444
Argument of Perigee161.6622
Mean Anonmoly258.9265
Mean Motion1.00270751
Decay Rate-1.01E-06
L11 41869U 16072A 18345.52463803 -.00000101 00000-0 00000+0 0 9998
L22 41869 1.4963 285.5564 0009444 161.6622 258.9265 1.00270751 7796

Live tracking and technical data element details for TIANLIAN 1-04 (NORAD 41869). TIANLIAN 1-04 can be tracked NOW for your location showing map with azimuth and elevation plus other details from your city location.

Track the satellite on the map from your city or location and see movement details for azimuth, elevation, latitude, longitude, range, height, and movement on the map or in text.







IsCatalogInMostPopularTable: catalog: 41869, numindb: 129
Update: records affected: 1



GetName: 41869 TIANLIAN 1-04

Hit Count: updated at: Thu, 13 Dec 2018 04:06:19 GMT